BEIDOU-3 M13

Last updated on May 15, 2019, 3:07 a.m. UTC

1 43622U 18072A   19134.33065416  .00000096  00000-0  00000+0 0  9995
2 43622  55.0212 149.3929 0008727 281.7281 160.1998  1.86231845  4404
UTC
Height (km)
Latitude
Longitude
Inclination
Orbital Period
UTC large
Height (km)
Speed (km/s)
/
Latitude / Longitude
Inclination (degrees)
Orbital Period (minutes)
Azimuth
Elevation
Range (km)
Doppler Factor
iOS Compass Heading
iOS Angle

Next 30 passes for location: Hong Kong

Rise time Rise Azimuth (degrees) Set time Set Azimuth (degrees) Duration Max altitude (degrees)

No matching passes for this satellites